Flag for Paraguay Weather past 2 weeks in Ciudad del Este, Paraguay

Now
70 °F

Fog.


Feels Like: 70 °F
Forecast: 68 / 79 °F
Wind: 3 mph from East

Location: Foz Do Iguacu Aeroporto

Current Time: Mar 28, 2015 at 5:47:10 AM

Latest Report: Mar 28, 2015 at 5:00 AM


Visibility: 3 mi

Pressure: 30.04 "Hg

Humidity: 94%

Dew point: 68 °F

Location of Ciudad del EsteLocation

Historic Weather in Ciudad del Este — Graph

°F

Ciudad del Este temperature yesterday

Maximum temperature yesterday: 79 °F (at 2:00 PM)
Minimum temperature yesterday: 70 °F (at 3:00 AM)
Average temperature yesterday: 73 °F

Past Weeks' High & Low Weather Summary

 TemperatureHumidityPressure
High91 °F (Mar 16, 2:00 PM)100% (Mar 13, 7:00 AM)30.09 "Hg (Mar 13, 7:00 AM)
Low55 °F (Mar 23, 5:00 AM)41% (Mar 14, 4:00 PM)29.77 "Hg (Mar 13, 5:00 PM)
Average76 °F80%29.93 "Hg
* Reported Mar 13 6:00 AM — Mar 28 5:00 AM, Ciudad del Este, Weather by CustomWeather, © 2015

Note: Actual official high and low records may vary slightly from our data, if they occured in-between our weather recording intervals... More about our weather records

Advertising

Ciudad del Este weather history for previous 24 hours

 ConditionsComfort  
Time TempWeatherWind HumidityBarometerVisibility
5:00 AM
Sat, Mar 28
70 °FFog.3 mph94%30.04 "Hg3 mi
4:00 AM70 °FFog.2 mph94%30.04 "Hg1 mi
3:00 AM68 °FFog.5 mph100%30.01 "Hg1 mi
2:00 AM68 °FPartly cloudy.No wind100%30.01 "Hg5 mi
1:00 AM70 °FPartly cloudy.5 mph94%30.04 "Hg5 mi
12:00 AM70 °FPartly cloudy.3 mph94%30.04 "Hg5 mi
11:00 PM
Fri, Mar 27
70 °FLight rain. Partly cloudy.7 mph94%30.04 "Hg5 mi
10:00 PM72 °FLight rain. Partly cloudy.3 mph94%30.04 "Hg5 mi
9:00 PM72 °FLight rain. Partly cloudy.3 mph94%30.07 "Hg5 mi
8:00 PM72 °FPassing clouds.6 mph94%30.04 "HgN/A
7:00 PM72 °FPassing clouds.6 mph94%30.01 "HgN/A
6:00 PM73 °FSnow. Partly cloudy.9 mph94%30.01 "Hg5 mi
5:00 PM73 °FMixture of precip. Partly cloudy.3 mph94%29.98 "Hg5 mi
4:00 PM75 °FThunderstorms. Partly sunny.3 mph94%29.98 "Hg1 mi
3:00 PM79 °FPartly sunny.5 mph84%29.98 "HgN/A
2:00 PM79 °FPartly sunny.2 mph84%29.98 "HgN/A
1:00 PM77 °FBroken clouds.5 mph83%30.01 "HgN/A
12:00 PM77 °FLight rain. Partly sunny.8 mph89%30.01 "HgN/A
11:00 AM75 °FPartly sunny.3 mph100%30.04 "HgN/A
10:00 AM73 °FPartly sunny.3 mph94%30.04 "HgN/A
9:00 AM72 °FLight rain. Fog.2 mph94%30.04 "Hg3 mi
8:00 AM70 °FLight rain. Fog.6 mph100%30.04 "Hg2 mi
7:00 AM72 °FFog.2 mph94%30.01 "Hg3 mi
6:00 AM72 °FLight rain. Fog.2 mph94%29.98 "Hg1 mi
5:00 AM70 °FPartly sunny.No wind100%29.95 "Hg4 mi
Weather by CustomWeather, © 2015

See weather overviewHow to use our weather pages